Regional Weather Roundup
Issued by NWS

Home | Current Version | Previous Version | Graphics & Text | Print | Product List | Glossary On
Versions: 1 2 3 4 5 6 7 8 9 10 11 12 13 14 15 16 17 18 19 20 21 22 23 24 25 26 27 28 29 30 31 32 33 34 35 36 37 38 39 40 41 42 43 44 45 46 47 48 49 50
000
ASUS43 KIND 170309
RWRIN

WEATHER ROUNDUP FOR INDIANA
NATIONAL WEATHER SERVICE INDIANAPOLIS IN
1100 PM EDT TUE SEP 16 2014

NOTE: "FAIR" INDICATES FEW OR NO CLOUDS BELOW 12,000 FEET WITH NO
SIGNIFICANT WEATHER AND/OR OBSTRUCTIONS TO VISIBILITY.

* - STATION DOES NOT REPORT WEATHER SUCH AS PRECIPITATION OR FOG.

+ - STATION NOT QUALITY CONTROLLED BY THE NATIONAL WEATHER SERVICE.
    USE DATA WITH CAUTION...ESPECIALLY DEWPOINT AND RELATIVE
    HUMIDITY OBSERVATIONS.

INZ001>003-010>013-019-020-170400-
NORTHWEST INDIANA

CITY           SKY/WX    TMP DP  RH WIND       PRES   REMARKS
GARY /AIRPORT/ CLEAR     50  49  95 CALM      30.11R
KNOX *+        CLEAR     48  46  91 CALM      30.10S
LA PORTE +     PTCLDY    46  45  97 CALM      30.11S
MICHIGAN CITY+ CLEAR     46  46 100 CALM      30.11S FOG
MONTICELLO +   CLEAR     48  48  98 CALM      30.10S
RENSSELAER +   CLEAR     46  46 100 CALM      30.11S
VALPARAISO     CLEAR     48  46  93 CALM      30.11S

$$

LMZ046-743>745-170400-
SOUTHERN LAKE MICHIGAN

STATION/POSITION TIME  TEMP WIND        PRES
                       AIR  DIR/SP/G
                 (UTC) (F)  (DEG/KT/KT) (MB)
MICHIGAN CITY    0300   56   80/  6/  8   N/A

$$

INZ004-005-014>016-021>024-170400-
NORTH CENTRAL INDIANA

CITY           SKY/WX    TMP DP  RH WIND       PRES   REMARKS
GOSHEN         CLEAR     50  47  89 CALM      30.11S
LOGANSPORT +   CLEAR     46  43  87 CALM      30.11S
PERU/GRISSOM   CLEAR     51  51 100 SW2       30.10S
ROCHESTER +    CLEAR     52  50  93 CALM      30.11S
SOUTH BEND     CLEAR     50  45  83 CALM      30.12S
WARSAW +       CLEAR     50  48  93 CALM      30.11S

$$

INZ006>009-017-018-025>027-170400-
NORTHEAST INDIANA

CITY           SKY/WX    TMP DP  RH WIND       PRES   REMARKS
ANGOLA *+      CLEAR     52  48  87 CALM      30.11S
AUBURN +       CLEAR     50  45  81 CALM      30.11S
FORT WAYNE     CLEAR     49  46  90 CALM      30.11S
HUNTINGTON +   CLEAR     49  48  97 CALM      30.10S

$$

INZ028-029-035-036-043>045-051>053-170400-
WEST CENTRAL INDIANA

CITY           SKY/WX    TMP DP  RH WIND       PRES   REMARKS
GREENCASTLE +  CLEAR     52  52 100 CALM      30.11S
LAFAYETTE      CLEAR     50  49  96 MISG      30.10S
TERRE HAUTE    CLEAR     48  46  93 CALM      30.11S

$$

INZ030>032-037>040-046>048-054>057-064-065-170400-
CENTRAL INDIANA

CITY           SKY/WX    TMP DP  RH WIND       PRES   REMARKS
CP ATTERBURY + FOG       46  46 100 CALM      30.12S VSB 1/4
FRANKFORT +    CLEAR    N/A N/A N/A CALM      30.11F
INDIANAPOLIS   CLEAR     53  49  86 S7        30.10F
-EAGLE CREEK   CLEAR     53  49  86 CALM      30.10F
KOKOMO *+      CLEAR     48  45  87 CALM      30.11R
MARION +       CLEAR     48  47  95 CALM      30.11S
MT COMFORT *+  CLEAR     48 N/A N/A CALM      30.11F
SHELBYVILLE    CLEAR     50  47  89 CALM      30.10F
ZIONSVILLE +   CLEAR     48  45  89 CALM      30.11F FOG

$$

INZ033-034-041-042-049-050-058-059-170400-
EAST CENTRAL INDIANA

CITY           SKY/WX    TMP DP  RH WIND       PRES   REMARKS
MUNCIE           N/A     48  45  89 CALM      30.11S

$$

INZ060-061-067>069-081>083-085>088-170400-
SOUTHWEST INDIANA

CITY           SKY/WX    TMP DP  RH WIND       PRES   REMARKS
EVANSVILLE     CLEAR     54  50  86 CALM      30.11S
WASHINGTON +   CLEAR     47  47 100 CALM      30.11S

$$

INZ062-063-066-070>080-084-089>092-170400-
SOUTH CENTRAL AND SOUTHEAST INDIANA

CITY           SKY/WX    TMP DP  RH WIND       PRES   REMARKS
BLOOMINGTON    FOG       48  46  93 CALM      30.11S VSB 1/2
NORTH VERNON +   N/A     50  50 100 CALM      30.12F FOG

$$



USA.gov is the U.S. government's official web portal to all federal, state and local government web resources and services.